Time,TemperatureF,DewpointF,PressureIn,WindDirection,WindDirectionDegrees,WindSpeedMPH,WindSpeedGustMPH,Humidity,HourlyPrecipIn,Conditions,Clouds,dailyrainin,SolarRadiationWatts/m^2,SoftwareType,DateUTC
2015-04-27 00:02:00,49.4,47.5,28.94,North,32767,0.0,0.0,93,0.00,,,0.00,0,Wunderground v.1.15,2015-04-27 04:02:00,
2015-04-27 00:08:00,49.4,47.5,28.93,North,32767,0.0,0.0,93,0.00,,,0.00,0,Wunderground v.1.15,2015-04-27 04:08:00,
2015-04-27 00:13:00,49.4,47.5,28.94,North,32767,0.0,0.0,93,0.00,,,0.00,0,Wunderground v.1.15,2015-04-27 04:13:00,
2015-04-27 00:18:00,49.4,47.5,28.93,North,32767,0.0,0.0,93,0.00,,,0.00,0,Wunderground v.1.15,2015-04-27 04:18:00,
2015-04-27 00:23:00,49.3,47.4,28.92,North,32767,0.0,0.0,93,0.00,,,0.00,0,Wunderground v.1.15,2015-04-27 04:23:00,
2015-04-27 00:28:00,49.3,47.6,28.94,North,32767,0.0,0.0,94,0.00,,,0.00,0,Wunderground v.1.15,2015-04-27 04:28:00,
2015-04-27 00:34:00,49.4,47.7,28.94,North,32767,0.0,0.0,94,0.00,,,0.00,0,Wunderground v.1.15,2015-04-27 04:34:00,
2015-04-27 00:39:00,49.3,47.6,28.94,North,32767,0.0,0.0,94,0.00,,,0.00,0,Wunderground v.1.15,2015-04-27 04:39:00,
2015-04-27 00:44:00,49.4,47.7,28.93,North,32767,0.0,0.0,94,0.00,,,0.00,0,Wunderground v.1.15,2015-04-27 04:44:00,
2015-04-27 00:50:00,49.4,47.7,28.94,North,32767,0.0,0.0,94,0.00,,,0.00,0,Wunderground v.1.15,2015-04-27 04:50:00,
2015-04-27 00:55:00,49.3,47.6,28.94,North,32767,0.0,0.0,94,0.00,,,0.00,0,Wunderground v.1.15,2015-04-27 04:55:00,
2015-04-27 01:00:00,49.1,47.4,28.94,North,32767,0.0,0.0,94,0.00,,,0.00,0,Wunderground v.1.15,2015-04-27 05:00:00,
2015-04-27 01:06:00,48.9,47.2,28.94,North,32767,0.0,0.0,94,0.00,,,0.00,0,Wunderground v.1.15,2015-04-27 05:06:00,
2015-04-27 01:13:00,48.6,46.7,28.93,North,32767,0.0,0.0,93,0.00,,,0.00,0,Wunderground v.1.15,2015-04-27 05:13:00,
2015-04-27 01:18:00,48.3,46.4,28.94,North,32767,0.0,0.0,93,0.00,,,0.00,0,Wunderground v.1.15,2015-04-27 05:18:00,
2015-04-27 01:24:00,48.0,46.1,28.94,North,32767,0.0,0.0,93,0.00,,,0.00,0,Wunderground v.1.15,2015-04-27 05:24:00,
2015-04-27 01:30:00,47.8,46.2,28.93,North,32767,0.0,0.0,94,0.00,,,0.00,0,Wunderground v.1.15,2015-04-27 05:30:00,
2015-04-27 01:35:00,47.5,45.9,28.94,North,32767,0.0,0.0,94,0.00,,,0.00,0,Wunderground v.1.15,2015-04-27 05:35:00,
2015-04-27 01:40:00,47.3,45.7,28.94,North,32767,0.0,0.0,94,0.00,,,0.00,0,Wunderground v.1.15,2015-04-27 05:40:00,
2015-04-27 01:45:00,47.3,45.7,28.94,North,32767,0.0,0.0,94,0.00,,,0.00,0,Wunderground v.1.15,2015-04-27 05:45:00,
2015-04-27 01:50:00,47.2,45.6,28.93,North,32767,0.0,0.0,94,0.00,,,0.00,0,Wunderground v.1.15,2015-04-27 05:50:00,